Location: Frankfurt am Main
(50.1109°N, 8.6821°E)
Time: 22:35:59
(UTC+01:00)

ISS - Pass Details

Date: 22 January 2020
Orbit: 415 x 423 km, 51.6° (Epoch: 25 February)

Event Time Altitude Azimuth Distance (km) Brightness Sun altitude
Rises 19:53:32 0° 242° (WSW) 2,373 1.0 -27.2°
Reaches altitude 10° 19:55:39 10° 240° (WSW) 1,509 -0.2 -27.5°
Enters shadow 19:56:38 18° 237° (WSW) 1,121 -1.1 -27.7°
